Weather in Kwaysa

South Ossetia     42°31′16″N   43°38′49″E
temp.,
°C
wind,
m/s
gust,
m/s
humid.,
%
clouds,
%
prec.,
mm/h
press.,
hPa
HPBL,
m
17 april, sat
sat1701:00+1ne326790 0.0 102421
04:00+1ne3268100 0.0 102321
07:00+2nne329299 0.3 102347
10:00+5ese119396 0.4 1021184
13:00+8ssw2383100 0.1 1021638
16:00+9wsw247683 0.5 1020896
19:00+6nw118978 0.4 102015
22:00+5nw1298100 2.2 102286
18 april, sun
sun1801:00+5nne1191100 0.1 102118
04:00+4ne2189100 0.1 102016
07:00+4ene1197100 5.6 102063
10:00+7se118451 6.3 1019384
13:00+10wsw367191 1.1 1018901
16:00+8nw3589100 3.1 1018268
19:00+6w2395100 2.0 1019232
22:00+4nnw229496 4.8 102164
19 april, mon
mon1901:00+3n2292100 0.0 102125
04:00+4n2288100 0.0 102019
07:00+5n228781 0.0 102043
10:00+8wsw238296 0.1 1020529
13:00+10wsw347493 0.9 1018878
16:00+10w2475100 1.8 1018637
19:00+9wsw227998 0.4 101865
22:00+7ne127658 0.4 101812
20 april, tue
tue2001:00+6ene2274100 0.0 101817
04:00+6ene447699 0.0 101744
07:00+8ene4472100 0.0 101547
10:00+14se3356100 0.0 1013375
13:00+16sw2447100 0.1 10121176
16:00+15sse2355100 0.3 1011903
19:00+7nnw4594100 13.3 1015417
22:00+7ene2389100 14.8 101673
21 april, wed
wed2101:00+7n0197100 0.9 101667
04:00+7ssw0199100 1.9 101650
07:00+6wsw009883 2.1 101544
10:00+9s228867 3.3 1015505
13:00+11ssw237922 0.8 1014674
16:00+12sw327723 1.7 1013707
19:00+8sw229037 0.9 1015200
22:00+5w1196100 2.8 1018123